OneWeb SL0139

operational
NORAD ID: 47261 Int'l Des: 2020-100 Owner: ONEWEB Country: UK Constellation: oneweb
LEOCIRCULARPOLARONEWEB_TYPE

Über OneWeb SL0139

Beschreibung wird geladen...

Live-Position

3D-Globus wird geladen...

Nächste Überflüge

Höhenverlauf

Altitude vs Time

uPlot chart will show altitude changes over time

Zweizeiliger Elementsatz

1 47261U 20100D 26035.85231081 .00000454 00000-0 12277-2 0 9991
2 47261 87.8952 16.9253 0001741 81.6379 278.4947 13.12442134247205
Epoch: 4. Feb. 2026 • Age: 11 hours

Aktueller Status

Höhe 1224.3 km
Geschwindigkeit 7.25 km/s
Subsatellitenpunkt 68.43°N, 129.95°E
Startdatum 18. Dez. 2020
Alter 5.1 years
Typ internet

Technische Details

Klassifizierung Payload
Masse 148.00 kg
Trockenmasse 140.00 kg
Gesamtmasse 148.00 kg
Länge 1.30 m
Durchmesser 1.00 m
Spannweite 5.00 m
Form Trapezoid+2 pan
Hersteller ONEWUS
Bus-Typ ARROW
Phasenstatus In Orbit
Besitzer/Staat ONEWEB/UK

Große Konstellationen

Loading constellations...